Weather History for Omaha, NE

Change the Weather History Date:

Wednesday, September 25, 2013

  Actual Average Record
Temperature  
Mean Temperature 66 °F 62 °F  
Max Temperature 82 °F 74 °F 93 °F (1998)
Min Temperature 50 °F 50 °F 33 °F (1926)
Degree Days  
Heating Degree Days 0 5  
Month to date heating degree days 14 63  
Since 1 July heating degree days 19 71  
Cooling Degree Days 1 2  
Month to date cooling degree days 178 108  
Year to date cooling degree days 1244 1088  
Growing Degree Days 16 (Base 50)    
Moisture  
Dew Point 54 °F    
Average Humidity 70    
Maximum Humidity 100    
Minimum Humidity 39    
Precipitation  
Precipitation 0.00 in 0.08 in 3.53 in (1973)
Month to date precipitation 2.25 2.27  
Year to date precipitation 23.49 25.38  
Snow  
Snow 0.00 in 0.00 in - ()
Month to date snowfall 0.0 0.0  
Since 1 July snowfall 0.0 0.0  
Snow Depth 0.00 in    
Sea Level Pressure  
Sea Level Pressure 29.85 in    
Wind  
Wind Speed 9 mph (SE)    
Max Wind Speed 21 mph    
Max Gust Speed 25 mph    
Visibility 8 miles    
Events      
T = Trace of Precipitation, MM = Missing Value Source: NWS Daily Summary

Daily Weather History Graph

Daily Weather History Graph

Search for Another Location

Airport:

Trip Planner

Search our weather history database for the weather conditions in past years. The results will help you decide how hot, cold, wet, or windy it might be!

Date:

Astronomy

Sep. 25, 2013 Rise Set
Actual Time 7:14 AM CDT 7:15 PM CDT
Civil Twilight 6:46 AM CDT 7:42 PM CDT
Nautical Twilight 6:14 AM CDT 8:14 PM CDT
Astronomical Twilight 5:41 AM CDT 8:47 PM CDT
Moon 11:19 PM CDT (9/25) 1:24 PM CDT (9/25)
Length of Visible Light 12h 55m
Length of Day
12h 00m
Waning Gibbous, 64% of the Moon is Illuminated
Sep 25
Waning Gibbous
Sep 26
Last Quarter
Oct 4
New
Oct 11
First Quarter
Oct 18
Full

Hourly Weather History & Observations

Time (CDT) Temp. Heat Index Dew Point Humidity Pressure Visibility Wind Dir Wind Speed Gust Speed Precip Events Conditions
12:52 AM 55.9 °F - 54.0 °F 93% 29.90 in 7.0 mi NW 4.6 mph - N/A   Clear
1:52 AM 57.0 °F - 55.0 °F 93% 29.91 in 7.0 mi North 5.8 mph - N/A   Clear
2:52 AM 55.9 °F - 54.0 °F 93% 29.90 in 6.0 mi NW 5.8 mph - N/A   Clear
3:45 AM 53.6 °F - 51.8 °F 94% 29.91 in 4.0 mi Calm Calm - N/A   Scattered Clouds
3:52 AM 53.1 °F - 52.0 °F 96% 29.90 in 4.0 mi Calm Calm - N/A   Partly Cloudy
4:52 AM 52.0 °F - 51.1 °F 97% 29.91 in 5.0 mi North 3.5 mph - N/A   Clear
5:16 AM 51.8 °F - 51.8 °F 100% 29.92 in 4.0 mi Calm Calm - N/A   Partly Cloudy
5:52 AM 53.1 °F - 51.1 °F 93% 29.90 in 4.0 mi NNW 3.5 mph - N/A   Partly Cloudy
6:52 AM 51.1 °F - 50.0 °F 96% 29.91 in 4.0 mi NNW 3.5 mph - N/A   Partly Cloudy
7:08 AM 51.8 °F - 48.2 °F 88% 29.92 in 2.0 mi NW 3.5 mph - N/A   Scattered Clouds
7:52 AM 52.0 °F - 51.1 °F 97% 29.92 in 4.0 mi Calm Calm - N/A   Partly Cloudy
8:52 AM 57.0 °F - 54.0 °F 89% 29.92 in 5.0 mi Calm Calm - N/A   Partly Cloudy
9:52 AM 63.0 °F - 55.9 °F 78% 29.92 in 7.0 mi Calm Calm - N/A   Partly Cloudy
10:52 AM 69.1 °F - 57.0 °F 65% 29.92 in 7.0 mi SE 6.9 mph - N/A   Partly Cloudy
11:52 AM 73.0 °F - 57.0 °F 57% 29.89 in 10.0 mi SSE 8.1 mph - N/A   Partly Cloudy
12:52 PM 75.9 °F - 55.0 °F 48% 29.86 in 10.0 mi SE 15.0 mph 21.9 mph N/A   Partly Cloudy
1:52 PM 78.1 °F - 55.0 °F 45% 29.83 in 10.0 mi SE 13.8 mph - N/A   Partly Cloudy
2:52 PM 80.1 °F 80.0 °F 54.0 °F 40% 29.80 in 10.0 mi SSE 16.1 mph - N/A   Partly Cloudy
3:52 PM 81.0 °F 80.7 °F 55.0 °F 41% 29.79 in 10.0 mi South 11.5 mph - N/A   Partly Cloudy
4:52 PM 81.0 °F 80.7 °F 55.0 °F 41% 29.77 in 10.0 mi SSE 12.7 mph 23.0 mph N/A   Partly Cloudy
5:52 PM 80.1 °F 80.2 °F 55.9 °F 43% 29.76 in 10.0 mi SSE 17.3 mph - N/A   Partly Cloudy
6:52 PM 77.0 °F - 57.0 °F 50% 29.75 in 10.0 mi SE 13.8 mph - N/A   Partly Cloudy
7:52 PM 73.9 °F - 57.0 °F 55% 29.74 in 10.0 mi SE 12.7 mph - N/A   Clear
8:52 PM 72.0 °F - 57.9 °F 61% 29.75 in 10.0 mi SE 15.0 mph - N/A   Clear
9:52 PM 70.0 °F - 57.9 °F 65% 29.78 in 10.0 mi SSE 16.1 mph - N/A   Clear
10:52 PM 68.0 °F - 57.9 °F 70% 29.78 in 10.0 mi SSE 16.1 mph - N/A   Clear
11:52 PM 66.9 °F - 57.9 °F 73% 29.78 in 10.0 mi SSE 15.0 mph - N/A   Clear